Time,TemperatureF,DewpointF,PressureIn,WindDirection,WindDirectionDegrees,WindSpeedMPH,WindSpeedGustMPH,Humidity,HourlyPrecipIn,Conditions,Clouds,dailyrainin,SoftwareType,DateUTC
2013-02-06 00:02:00,2.0,-2.0,-100.00,NW,305,3.0,5.0,84,-99.99,,,-99.99,,2013-02-06 05:02:00,
2013-02-06 00:12:00,2.0,-2.0,-100.00,NW,305,3.0,5.0,84,-99.99,,,-99.99,,2013-02-06 05:12:00,
2013-02-06 00:22:00,1.0,-3.0,-100.00,WNW,300,3.0,4.0,83,-99.99,,,-99.99,,2013-02-06 05:22:00,
2013-02-06 00:32:00,1.0,-3.0,-100.00,WNW,290,4.0,5.0,83,-99.99,,,-99.99,,2013-02-06 05:32:00,
2013-02-06 00:41:00,1.0,-3.0,-100.00,WNW,290,4.0,5.0,83,-99.99,,,-99.99,,2013-02-06 05:41:00,
2013-02-06 00:52:00,0.0,-4.0,-100.00,NNW,330,1.0,4.0,83,-99.99,,,-99.99,,2013-02-06 05:52:00,
2013-02-06 01:01:00,0.0,-4.0,-100.00,NNW,330,2.0,4.0,83,-99.99,,,-99.99,,2013-02-06 06:01:00,
2013-02-06 01:11:00,0.0,-4.0,-100.00,NNW,330,2.0,4.0,83,-99.99,,,-99.99,,2013-02-06 06:11:00,
2013-02-06 01:21:00,0.0,-4.0,-100.00,NW,320,4.0,4.0,83,-99.99,,,-99.99,,2013-02-06 06:21:00,
2013-02-06 01:32:00,0.0,-4.0,-100.00,NW,325,1.0,3.0,83,-99.99,,,-99.99,,2013-02-06 06:32:00,
2013-02-06 01:42:00,0.0,-4.0,-100.00,NW,325,1.0,3.0,83,-99.99,,,-99.99,,2013-02-06 06:42:00,
2013-02-06 01:51:00,-2.0,-6.0,-100.00,NNW,330,2.0,4.0,82,-99.99,,,-99.99,,2013-02-06 06:51:00,
2013-02-06 02:01:00,-3.0,-7.0,-100.00,West,280,1.0,3.0,82,-99.99,,,-99.99,,2013-02-06 07:01:00,
2013-02-06 02:11:00,-3.0,-7.0,-100.00,West,280,1.0,3.0,82,-99.99,,,-99.99,,2013-02-06 07:11:00,
2013-02-06 02:22:00,-4.0,-8.0,-100.00,WSW,255,1.0,1.0,81,-99.99,,,-99.99,,2013-02-06 07:22:00,
2013-02-06 02:32:00,-5.0,-9.0,-100.00,SW,225,1.0,1.0,81,-99.99,,,-99.99,,2013-02-06 07:32:00,
2013-02-06 02:42:00,-5.0,-9.0,-100.00,SW,225,1.0,1.0,81,-99.99,,,-99.99,,2013-02-06 07:42:00,
2013-02-06 02:51:00,-6.0,-11.0,-100.00,North,0,1.0,1.0,80,-99.99,,,-99.99,,2013-02-06 07:51:00,
2013-02-06 03:01:00,-7.0,-11.0,-100.00,SW,235,1.0,1.0,80,-99.99,,,-99.99,,2013-02-06 08:01:00,
2013-02-06 03:11:00,-7.0,-11.0,-100.00,SW,235,1.0,1.0,80,-99.99,,,-99.99,,2013-02-06 08:11:00,
2013-02-06 03:21:00,-7.0,-11.0,-100.00,NW,305,1.0,1.0,80,-99.99,,,-99.99,,2013-02-06 08:21:00,
2013-02-06 03:31:00,-8.0,-12.0,-100.00,NW,315,1.0,2.0,80,-99.99,,,-99.99,,2013-02-06 08:31:00,
2013-02-06 03:42:00,-8.0,-12.0,-100.00,NW,315,1.0,2.0,80,-99.99,,,-99.99,,2013-02-06 08:42:00,
2013-02-06 03:53:00,-7.0,-12.0,-100.00,NW,305,2.0,4.0,80,-99.99,,,-99.99,,2013-02-06 08:53:00,
2013-02-06 04:01:00,-8.0,-13.0,-100.00,WNW,295,3.0,3.0,80,-99.99,,,-99.99,,2013-02-06 09:01:00,
2013-02-06 04:21:00,-9.0,-14.0,-100.00,WNW,285,1.0,2.0,79,-99.99,,,-99.99,,2013-02-06 09:21:00,
2013-02-06 04:32:00,-9.0,-14.0,-100.00,NW,315,1.0,1.0,79,-99.99,,,-99.99,,2013-02-06 09:32:00,
2013-02-06 04:41:00,-9.0,-14.0,-100.00,NW,315,1.0,1.0,79,-99.99,,,-99.99,,2013-02-06 09:41:00,
2013-02-06 04:51:00,-10.0,-15.0,-100.00,NW,305,1.0,2.0,79,-99.99,,,-99.99,,2013-02-06 09:51:00,
2013-02-06 05:01:00,-10.0,-14.0,-100.00,NW,325,1.0,3.0,79,-99.99,,,-99.99,,2013-02-06 10:01:00,
2013-02-06 05:11:00,-10.0,-14.0,-100.00,NW,325,1.0,3.0,79,-99.99,,,-99.99,,2013-02-06 10:11:00,
2013-02-06 05:21:00,-10.0,-15.0,-100.00,ENE,75,0.0,3.0,79,-99.99,,,-99.99,,2013-02-06 10:21:00,
2013-02-06 05:31:00,-11.0,-16.0,-100.00,West,275,2.0,2.0,78,-99.99,,,-99.99,,2013-02-06 10:31:00,
2013-02-06 05:51:00,-11.0,-15.0,-100.00,NNW,330,1.0,1.0,79,-99.99,,,-99.99,,2013-02-06 10:51:00,
2013-02-06 06:01:00,-11.0,-16.0,-100.00,WNW,290,1.0,2.0,79,-99.99,,,-99.99,,2013-02-06 11:01:00,
2013-02-06 06:11:00,-11.0,-16.0,-100.00,WNW,290,1.0,2.0,79,-99.99,,,-99.99,,2013-02-06 11:11:00,
2013-02-06 06:22:00,-10.0,-15.0,-100.00,NW,305,1.0,2.0,79,-99.99,,,-99.99,,2013-02-06 11:22:00,
2013-02-06 06:32:00,-11.0,-16.0,-100.00,WNW,290,1.0,1.0,78,-99.99,,,-99.99,,2013-02-06 11:32:00,
2013-02-06 06:52:00,-11.0,-16.0,-100.00,NW,315,2.0,2.0,78,-99.99,,,-99.99,,2013-02-06 11:52:00,
2013-02-06 07:02:00,-10.0,-15.0,-100.00,North,10,1.0,2.0,79,-99.99,,,-99.99,,2013-02-06 12:02:00,
2013-02-06 07:12:00,-10.0,-15.0,-100.00,North,10,1.0,2.0,79,-99.99,,,-99.99,,2013-02-06 12:12:00,
2013-02-06 07:20:00,-3.0,-7.0,-100.00,East,80,0.0,1.0,81,-99.99,,,-99.99,,2013-02-06 12:20:00,
2013-02-06 07:22:00,-9.0,-13.0,-100.00,SE,135,0.0,1.0,79,-99.99,,,-99.99,,2013-02-06 12:22:00,
2013-02-06 07:32:00,-7.0,-11.0,-100.00,South,175,0.0,1.0,80,-99.99,,,-99.99,,2013-02-06 12:32:00,
2013-02-06 07:42:00,-7.0,-11.0,-100.00,South,175,0.0,1.0,80,-99.99,,,-99.99,,2013-02-06 12:42:00,
2013-02-06 07:52:00,-5.0,-9.0,-100.00,WNW,295,0.0,1.0,81,-99.99,,,-99.99,,2013-02-06 12:52:00,
2013-02-06 08:01:00,-3.0,-7.0,-100.00,East,80,0.0,1.0,81,-99.99,,,-99.99,,2013-02-06 13:01:00,
2013-02-06 08:12:00,-3.0,-7.0,-100.00,East,80,0.0,1.0,81,-99.99,,,-99.99,,2013-02-06 13:12:00,
2013-02-06 09:32:00,2.0,-2.0,-100.00,SW,215,1.0,1.0,83,-99.99,,,-99.99,,2013-02-06 14:32:00,
2013-02-06 09:42:00,2.0,-2.0,-100.00,SW,215,1.0,1.0,83,-99.99,,,-99.99,,2013-02-06 14:42:00,
2013-02-06 09:52:00,4.0,0.0,-100.00,SSW,200,1.0,3.0,84,-99.99,,,-99.99,,2013-02-06 14:52:00,
2013-02-06 10:02:00,5.0,2.0,-100.00,NNE,20,1.0,3.0,85,-99.99,,,-99.99,,2013-02-06 15:02:00,
2013-02-06 10:11:00,5.0,2.0,-100.00,NNE,20,1.0,3.0,85,-99.99,,,-99.99,,2013-02-06 15:11:00,
2013-02-06 10:21:00,7.0,4.0,-100.00,South,170,0.0,1.0,86,-99.99,,,-99.99,,2013-02-06 15:21:00,
2013-02-06 10:31:00,8.0,5.0,-100.00,SW,225,0.0,1.0,86,-99.99,,,-99.99,,2013-02-06 15:31:00,
2013-02-06 10:42:00,8.0,5.0,-100.00,SW,225,0.0,1.0,86,-99.99,,,-99.99,,2013-02-06 15:42:00,
2013-02-06 10:52:00,9.0,6.0,-100.00,ENE,70,1.0,1.0,86,-99.99,,,-99.99,,2013-02-06 15:52:00,
2013-02-06 11:01:00,11.0,8.0,-100.00,North,355,0.0,0.0,86,-99.99,,,-99.99,,2013-02-06 16:01:00,
2013-02-06 11:11:00,11.0,8.0,-100.00,North,355,0.0,0.0,86,-99.99,,,-99.99,,2013-02-06 16:11:00,
2013-02-06 11:21:00,15.0,11.0,-100.00,WNW,290,1.0,1.0,85,-99.99,,,-99.99,,2013-02-06 16:21:00,
2013-02-06 11:32:00,16.0,10.0,-100.00,North,5,0.0,1.0,78,-99.99,,,-99.99,,2013-02-06 16:32:00,
2013-02-06 11:42:00,16.0,10.0,-100.00,North,5,0.0,1.0,78,-99.99,,,-99.99,,2013-02-06 16:42:00,
2013-02-06 11:52:00,20.0,11.0,-100.00,SW,230,5.0,9.0,69,-99.99,,,-99.99,,2013-02-06 16:52:00,
2013-02-06 12:02:00,20.0,11.0,-100.00,SW,230,5.0,9.0,69,-99.99,,,-99.99,,2013-02-06 17:02:00,
2013-02-06 12:11:00,20.0,11.0,-100.00,SW,230,5.0,9.0,69,-99.99,,,-99.99,,2013-02-06 17:11:00,
2013-02-06 12:21:00,22.0,12.0,-100.00,South,170,1.0,10.0,66,-99.99,,,-99.99,,2013-02-06 17:21:00,
2013-02-06 12:32:00,23.0,12.0,-100.00,SSW,195,2.0,7.0,64,-99.99,,,-99.99,,2013-02-06 17:32:00,
2013-02-06 12:52:00,23.0,12.0,-100.00,SSW,210,5.0,11.0,63,-99.99,,,-99.99,,2013-02-06 17:52:00,
2013-02-06 13:01:00,23.0,12.0,-100.00,West,270,6.0,11.0,63,-99.99,,,-99.99,,2013-02-06 18:01:00,
2013-02-06 13:23:00,24.0,13.0,-100.00,West,265,5.0,9.0,63,-99.99,,,-99.99,,2013-02-06 18:23:00,
2013-02-06 13:32:00,25.0,12.0,-100.00,West,265,4.0,9.0,59,-99.99,,,-99.99,,2013-02-06 18:32:00,
2013-02-06 13:42:00,25.0,12.0,-100.00,West,265,4.0,9.0,59,-99.99,,,-99.99,,2013-02-06 18:42:00,
2013-02-06 13:52:00,25.0,12.0,-100.00,SW,225,4.0,10.0,57,-99.99,,,-99.99,,2013-02-06 18:52:00,
2013-02-06 14:01:00,26.0,12.0,-100.00,SW,235,4.0,6.0,56,-99.99,,,-99.99,,2013-02-06 19:01:00,
2013-02-06 14:11:00,26.0,12.0,-100.00,SW,235,4.0,6.0,56,-99.99,,,-99.99,,2013-02-06 19:11:00,
2013-02-06 14:21:00,26.0,12.0,-100.00,WNW,285,5.0,9.0,55,-99.99,,,-99.99,,2013-02-06 19:21:00,
2013-02-06 14:32:00,27.0,12.0,-100.00,SW,220,1.0,6.0,53,-99.99,,,-99.99,,2013-02-06 19:32:00,
2013-02-06 14:42:00,27.0,12.0,-100.00,SW,220,1.0,6.0,53,-99.99,,,-99.99,,2013-02-06 19:42:00,
2013-02-06 14:50:00,28.0,11.0,-100.00,SSW,210,6.0,11.0,48,-99.99,,,-99.99,,2013-02-06 19:50:00,
2013-02-06 14:52:00,26.0,12.0,-100.00,SW,230,4.0,6.0,54,-99.99,,,-99.99,,2013-02-06 19:52:00,
2013-02-06 15:01:00,27.0,12.0,-100.00,West,280,1.0,8.0,52,-99.99,,,-99.99,,2013-02-06 20:01:00,
2013-02-06 15:11:00,27.0,12.0,-100.00,West,280,1.0,8.0,52,-99.99,,,-99.99,,2013-02-06 20:11:00,
2013-02-06 15:21:00,28.0,11.0,-100.00,WSW,240,1.0,9.0,49,-99.99,,,-99.99,,2013-02-06 20:21:00,
2013-02-06 15:32:00,28.0,11.0,-100.00,SSW,210,6.0,11.0,48,-99.99,,,-99.99,,2013-02-06 20:32:00,
2013-02-06 15:42:00,28.0,11.0,-100.00,SSW,210,6.0,11.0,48,-99.99,,,-99.99,,2013-02-06 20:42:00,
2013-02-06 16:02:00,28.0,10.0,-100.00,SW,220,7.0,10.0,46,-99.99,,,-99.99,,2013-02-06 21:02:00,
2013-02-06 16:11:00,28.0,10.0,-100.00,SW,220,7.0,10.0,46,-99.99,,,-99.99,,2013-02-06 21:11:00,
2013-02-06 16:21:00,28.0,11.0,-100.00,SSW,210,4.0,6.0,47,-99.99,,,-99.99,,2013-02-06 21:21:00,
2013-02-06 16:32:00,28.0,11.0,-100.00,SSW,205,5.0,8.0,48,-99.99,,,-99.99,,2013-02-06 21:32:00,
2013-02-06 16:42:00,28.0,11.0,-100.00,SSW,205,5.0,8.0,48,-99.99,,,-99.99,,2013-02-06 21:42:00,
2013-02-06 16:51:00,29.0,12.0,-100.00,WSW,250,4.0,7.0,48,-99.99,,,-99.99,,2013-02-06 21:51:00,
2013-02-06 17:01:00,28.0,10.0,-100.00,SSW,210,4.0,8.0,47,-99.99,,,-99.99,,2013-02-06 22:01:00,
2013-02-06 17:11:00,28.0,10.0,-100.00,SSW,210,4.0,8.0,47,-99.99,,,-99.99,,2013-02-06 22:11:00,
2013-02-06 17:21:00,27.0,10.0,-100.00,West,265,7.0,12.0,48,-99.99,,,-99.99,,2013-02-06 22:21:00,
2013-02-06 17:31:00,27.0,10.0,-100.00,WSW,250,6.0,9.0,48,-99.99,,,-99.99,,2013-02-06 22:31:00,
2013-02-06 17:42:00,27.0,10.0,-100.00,WSW,250,6.0,9.0,48,-99.99,,,-99.99,,2013-02-06 22:42:00,
2013-02-06 17:52:00,27.0,11.0,-100.00,West,270,4.0,8.0,51,-99.99,,,-99.99,,2013-02-06 22:52:00,
2013-02-06 18:01:00,27.0,11.0,-100.00,WNW,285,4.0,6.0,52,-99.99,,,-99.99,,2013-02-06 23:01:00,
2013-02-06 18:11:00,27.0,11.0,-100.00,WNW,285,4.0,6.0,52,-99.99,,,-99.99,,2013-02-06 23:11:00,
2013-02-06 18:21:00,27.0,13.0,-100.00,South,180,1.0,4.0,56,-99.99,,,-99.99,,2013-02-06 23:21:00,
2013-02-06 18:32:00,26.0,16.0,-100.00,SW,220,6.0,10.0,65,-99.99,,,-99.99,,2013-02-06 23:32:00,
2013-02-06 18:42:00,26.0,16.0,-100.00,SW,220,6.0,10.0,65,-99.99,,,-99.99,,2013-02-06 23:42:00,
2013-02-06 18:52:00,25.0,18.0,-100.00,South,185,2.0,6.0,73,-99.99,,,-99.99,,2013-02-06 23:52:00,
2013-02-06 19:01:00,25.0,18.0,-100.00,SSW,195,1.0,4.0,77,-99.99,,,-99.99,,2013-02-07 00:01:00,
2013-02-06 19:11:00,25.0,18.0,-100.00,SSW,195,1.0,4.0,77,-99.99,,,-99.99,,2013-02-07 00:11:00,
2013-02-06 19:21:00,24.0,19.0,-100.00,South,180,3.0,5.0,81,-99.99,,,-99.99,,2013-02-07 00:21:00,
2013-02-06 19:32:00,24.0,20.0,-100.00,SSE,165,1.0,2.0,84,-99.99,,,-99.99,,2013-02-07 00:32:00,
2013-02-06 19:42:00,24.0,20.0,-100.00,SSE,165,1.0,2.0,84,-99.99,,,-99.99,,2013-02-07 00:42:00,
2013-02-06 19:51:00,24.0,20.0,-100.00,SSE,165,1.0,3.0,86,-99.99,,,-99.99,,2013-02-07 00:51:00,
2013-02-06 20:01:00,24.0,21.0,-100.00,SE,140,1.0,3.0,88,-99.99,,,-99.99,,2013-02-07 01:01:00,
2013-02-06 20:11:00,24.0,21.0,-100.00,SE,140,1.0,3.0,88,-99.99,,,-99.99,,2013-02-07 01:11:00,
2013-02-06 20:21:00,23.0,21.0,-100.00,SE,135,1.0,2.0,90,-99.99,,,-99.99,,2013-02-07 01:21:00,
2013-02-06 20:32:00,23.0,21.0,-100.00,SE,135,2.0,3.0,91,-99.99,,,-99.99,,2013-02-07 01:32:00,
2013-02-06 20:42:00,23.0,21.0,-100.00,SE,135,2.0,3.0,91,-99.99,,,-99.99,,2013-02-07 01:42:00,
2013-02-06 20:50:00,23.0,21.0,-100.00,ESE,120,4.0,5.0,93,-99.99,,,-99.99,,2013-02-07 01:50:00,
2013-02-06 20:52:00,23.0,21.0,-100.00,SE,135,3.0,4.0,92,-99.99,,,-99.99,,2013-02-07 01:52:00,
2013-02-06 21:01:00,23.0,21.0,-100.00,SE,135,3.0,4.0,92,-99.99,,,-99.99,,2013-02-07 02:01:00,
2013-02-06 21:11:00,23.0,21.0,-100.00,SE,135,3.0,4.0,92,-99.99,,,-99.99,,2013-02-07 02:11:00,
2013-02-06 21:21:00,23.0,21.0,-100.00,SE,140,1.0,4.0,93,-99.99,,,-99.99,,2013-02-07 02:21:00,
2013-02-06 21:32:00,23.0,21.0,-100.00,ESE,120,4.0,5.0,93,-99.99,,,-99.99,,2013-02-07 02:32:00,
2013-02-06 21:41:00,23.0,21.0,-100.00,ESE,120,4.0,5.0,93,-99.99,,,-99.99,,2013-02-07 02:41:00,
2013-02-06 22:02:00,23.0,21.0,-100.00,ESE,115,2.0,8.0,93,-99.99,,,-99.99,,2013-02-07 03:02:00,
2013-02-06 22:11:00,23.0,21.0,-100.00,ESE,115,2.0,8.0,93,-99.99,,,-99.99,,2013-02-07 03:11:00,
2013-02-06 22:21:00,23.0,21.0,-100.00,SSE,165,4.0,6.0,93,-99.99,,,-99.99,,2013-02-07 03:21:00,
2013-02-06 22:31:00,23.0,21.0,-100.00,South,175,3.0,4.0,93,-99.99,,,-99.99,,2013-02-07 03:31:00,
2013-02-06 22:42:00,23.0,21.0,-100.00,South,175,3.0,4.0,93,-99.99,,,-99.99,,2013-02-07 03:42:00,
2013-02-06 22:52:00,23.0,21.0,-100.00,SSW,205,1.0,5.0,93,-99.99,,,-99.99,,2013-02-07 03:52:00,
2013-02-06 23:01:00,23.0,21.0,-100.00,South,180,1.0,4.0,93,-99.99,,,-99.99,,2013-02-07 04:01:00,
2013-02-06 23:11:00,23.0,21.0,-100.00,South,180,1.0,4.0,93,-99.99,,,-99.99,,2013-02-07 04:11:00,
2013-02-06 23:22:00,23.0,21.0,-100.00,SSE,150,2.0,4.0,93,-99.99,,,-99.99,,2013-02-07 04:22:00,
2013-02-06 23:32:00,23.0,21.0,-100.00,SSE,155,3.0,4.0,93,-99.99,,,-99.99,,2013-02-07 04:32:00,
2013-02-06 23:41:00,23.0,21.0,-100.00,SSE,155,3.0,4.0,93,-99.99,,,-99.99,,2013-02-07 04:41:00,
2013-02-06 23:53:00,23.0,21.0,-100.00,SE,130,1.0,3.0,93,-99.99,,,-99.99,,2013-02-07 04:53:00,